User: anonymous   Login
Location: Emory University Observatory
(33.7903°N, 84.3267°W)
Time: 00:32:09
(UTC-05:00)
Language:

Hubble Space Telescope - Orbit

View from above orbital plane
View from above orbital plane
View from above satellite
View from above satellite

Ground track
Ground track

The orbit data is extracted from the following two-line orbital elements,

1 20580U 90037B   18022.36152062 +.00000475 +00000-0 +18178-4 0  9997
2 20580 028.4708 359.0455 0002698 017.2213 135.5347 15.08966805323338
Epoch (UTC): 22 January 2018 08:40:35
Eccentricity: 0.0002698
inclination: 28.4708°
perigee height: 537 km
apogee height: 541 km
right ascension of ascending node: 359.0455°
argument of perigee: 17.2213°
revolutions per day: 15.08966805
mean anomaly at epoch: 135.5347°
orbit number at epoch: 32333

The dashed part of the orbit path shows where the satellite is in the earth's shadow,  

DLR